Glasgow, KY

3:40 PM CDT on May 25, 2017 (GMT -0500)
Glasgow Municipal

Weather History for KGLW - March, 2013

Change the Weather History Date:

Friday, March 1, 2013

  Actual Average Record
Temperature  
Mean Temperature 36 °F -  
Max Temperature 38 °F 54 °F 75 °F (1976)
Min Temperature 33 °F 32 °F 10 °F (1980)
Degree Days  
Heating Degree Days 30    
Moisture  
Dew Point 35 °F    
Average Humidity 94    
Maximum Humidity 100    
Minimum Humidity 86    
Precipitation  
Precipitation 0.09 in - - ()
Sea Level Pressure  
Sea Level Pressure 30.01 in    
Wind  
Wind Speed 4 mph (WNW)    
Max Wind Speed 8 mph    
Max Gust Speed -    
Visibility 5 miles    
Events Rain , Snow    
Averages and records for this station are not official NWS values.
T = Trace of Precipitation, MM = Missing Value Source: NWS Daily Summary

Daily Weather History Graph

Daily Weather History Graph

Search for Another Location

Airport or City:

Trip Planner

Search our weather history database for the weather conditions in past years. The results will help you decide how hot, cold, wet, or windy it might be!

Date:

Astronomy

Mar. 01, 2013 Rise Set
Actual Time 6:14 AM CST 5:38 PM CST
Civil Twilight 5:48 AM CST 6:04 PM CST
Nautical Twilight 5:18 AM CST 6:34 PM CST
Astronomical Twilight 4:48 AM CST 7:04 PM CST
Moon 10:03 PM CST (3/1) 8:07 AM CST (3/1)
Length of Visible Light 12h 16m
Length of Day
11h 23m
Waning Gibbous, 83% of the Moon is Illuminated
Mar 1
Waning Gibbous
Mar 4
Last Quarter
Mar 11
New
Mar 19
First Quarter
Mar 27
Full

Hourly Weather History & Observations

Time (CST) Temp. Windchill Dew Point Humidity Pressure Visibility Wind Dir Wind Speed Gust Speed Precip Events Conditions
12:15 AM - - - N/A% 30.00 in 4.0 mi West 3.5 mph - N/A   Unknown
12:35 AM - - - N/A% 30.00 in 4.0 mi West 4.6 mph - N/A   Unknown
12:55 AM - - - N/A% 29.99 in 4.0 mi West 4.6 mph - N/A   Haze
1:15 AM - - - N/A% 29.99 in 4.0 mi West 3.5 mph - N/A   Unknown
1:35 AM - - - N/A% 29.98 in 4.0 mi WNW 5.8 mph - N/A   Unknown
1:55 AM - - - N/A% 29.98 in 5.0 mi West 4.6 mph - N/A   Haze
2:15 AM - - - N/A% 29.98 in 5.0 mi WNW 4.6 mph - N/A   Haze
2:55 AM - - - N/A% 29.98 in 4.0 mi WNW 4.6 mph - N/A   Unknown
3:15 AM - - - N/A% 29.98 in 4.0 mi West 3.5 mph - N/A   Unknown
3:35 AM - - - N/A% 29.98 in 4.0 mi West 4.6 mph - N/A   Unknown
3:55 AM - - - N/A% 29.99 in 4.0 mi West 3.5 mph - N/A   Unknown
4:15 AM - - - N/A% 29.99 in 3.0 mi Calm Calm - N/A   Unknown
4:35 AM - - - N/A% 29.99 in 2.5 mi West 3.5 mph - N/A   Unknown
5:15 AM - - - N/A% 29.99 in 1.5 mi Calm Calm - N/A   Unknown
5:35 AM - - - N/A% 29.99 in 1.5 mi West 3.5 mph - N/A   Unknown
5:55 AM - - - N/A% 29.99 in 1.8 mi Calm Calm - N/A   Unknown
6:15 AM - - - N/A% 29.99 in 1.8 mi Calm Calm - N/A   Unknown
7:15 AM - - - N/A% 30.01 in 1.2 mi West 4.6 mph - 0.01 in   Unknown
7:35 AM - - - N/A% 30.01 in 1.5 mi West 4.6 mph - 0.02 in   Unknown
7:55 AM - - - N/A% 30.01 in 1.8 mi WNW 5.8 mph - 0.03 in   Unknown
8:15 AM - - - N/A% 30.02 in 1.5 mi West 5.8 mph - N/A   Unknown
8:35 AM - - - N/A% 30.02 in 2.0 mi WNW 4.6 mph - N/A   Unknown
8:55 AM - - - N/A% 30.02 in 2.5 mi West 4.6 mph - 0.01 in   Unknown
9:15 AM - - - N/A% 30.02 in 2.5 mi WNW 5.8 mph - N/A   Unknown
9:35 AM - - - N/A% 30.02 in 3.0 mi West 5.8 mph - N/A   Unknown
9:55 AM - - - N/A% 30.02 in 4.0 mi West 4.6 mph - N/A   Unknown
10:15 AM - - - N/A% 30.02 in 5.0 mi WNW 5.8 mph - N/A Rain Light Rain
10:35 AM 36.1 °F 32.3 °F 36.0 °F 99% 30.02 in 7.0 mi West 4.6 mph - N/A Rain Light Rain
11:15 AM 36.9 °F 33.1 °F 32.9 °F 86% 30.02 in 10.0 mi NW 4.6 mph - N/A Rain Light Rain
11:35 AM 36.3 °F 32.5 °F 34.2 °F 92% 30.02 in 7.0 mi WNW 4.6 mph - 0.01 in Rain Rain
11:55 AM 36.9 °F 30.7 °F 35.1 °F 93% 30.01 in 7.0 mi WSW 8.1 mph - 0.01 in Rain Rain
12:15 PM 37.4 °F 32.8 °F 37.0 °F 99% 30.01 in 10.0 mi WSW 5.8 mph - N/A   Mostly Cloudy
12:35 PM 38.7 °F 32.9 °F 35.6 °F 89% 30.00 in 10.0 mi WSW 8.1 mph - N/A Rain Light Rain
12:55 PM 37.6 °F 33.1 °F 34.7 °F 89% 29.99 in 4.0 mi West 5.8 mph - N/A Rain Light Rain
1:15 PM 37.6 °F 31.6 °F 36.0 °F 94% 29.99 in 7.0 mi NW 8.1 mph - 0.01 in Rain Light Rain
1:35 PM 35.4 °F 32.6 °F 34.0 °F 94% 29.99 in 2.0 mi WNW 3.5 mph - 0.02 in Snow Light Snow
1:55 PM - - - N/A% 29.98 in 10.0 mi West 5.8 mph - 0.02 in   Overcast
2:15 PM 37.2 °F 31.2 °F 35.1 °F 92% 29.99 in 7.0 mi West 8.1 mph - N/A Rain Light Rain
2:35 PM - - - N/A% 29.99 in 3.0 mi WNW 5.8 mph - N/A   Overcast
2:55 PM - - - N/A% 29.99 in 10.0 mi Calm Calm - N/A Rain Rain
3:15 PM 36.9 °F 31.4 °F 36.9 °F 100% 29.98 in 10.0 mi West 6.9 mph - 0.01 in Rain Light Rain
3:35 PM 38.1 °F 32.9 °F 36.9 °F 95% 29.98 in 10.0 mi WSW 6.9 mph - 0.01 in   Overcast
3:55 PM 36.9 °F 31.4 °F 35.4 °F 95% 29.99 in 10.0 mi NNW 6.9 mph - 0.01 in Rain Light Rain
4:15 PM - - - N/A% 30.00 in 2.5 mi NNW 5.8 mph - N/A   Overcast
4:35 PM - - - N/A% 30.00 in 5.0 mi NW 4.6 mph - N/A   Unknown
4:55 PM - - - N/A% 30.00 in 10.0 mi NW 3.5 mph - N/A   Light Drizzle
5:15 PM - - - N/A% 30.00 in 10.0 mi Calm Calm - N/A   Overcast
5:35 PM - - - N/A% 30.01 in 10.0 mi NW 4.6 mph - N/A   Unknown
5:55 PM - - - N/A% 30.01 in 7.0 mi WNW 3.5 mph - 0.01 in   Unknown
6:15 PM - - - N/A% 30.01 in 10.0 mi WNW 3.5 mph - N/A   Unknown
6:35 PM - - - N/A% 30.02 in 10.0 mi WNW 4.6 mph - N/A   Overcast
6:55 PM - - - N/A% 30.02 in 10.0 mi WNW 4.6 mph - N/A   Overcast
7:15 PM - - - N/A% 30.01 in 10.0 mi NNW 5.8 mph - N/A Rain Light Rain
7:35 PM 33.6 °F 29.4 °F 33.6 °F 100% 30.03 in 7.0 mi NW 4.6 mph - N/A Snow Light Snow
7:55 PM 33.4 °F 29.1 °F 33.4 °F 100% 30.03 in 4.0 mi NNW 4.6 mph - N/A Snow Light Snow
8:15 PM - - - N/A% 30.03 in 7.0 mi Calm Calm - N/A   Unknown
8:35 PM - - - N/A% 30.03 in 7.0 mi NW 4.6 mph - N/A   Overcast
8:55 PM - - - N/A% 30.03 in 4.0 mi NW 4.6 mph - N/A   Unknown
9:15 PM - - - N/A% 30.04 in 5.0 mi WNW 3.5 mph - N/A   Haze
9:35 PM - - - N/A% 30.04 in 3.0 mi WNW 3.5 mph - N/A   Unknown
9:55 PM - - - N/A% 30.04 in 4.0 mi WNW 4.6 mph - N/A   Unknown
10:15 PM - - - N/A% 30.03 in 3.0 mi Calm Calm - N/A   Unknown
10:35 PM - - - N/A% 30.03 in 3.0 mi WNW 5.8 mph - N/A   Unknown
10:55 PM - - - N/A% 30.03 in 4.0 mi NW 3.5 mph - N/A   Unknown
11:15 PM - - - N/A% 30.03 in 3.0 mi NW 3.5 mph - N/A   Unknown
11:35 PM - - - N/A% 30.02 in 3.0 mi NW 3.5 mph - N/A   Unknown
11:55 PM - - - N/A% 30.02 in 3.0 mi Calm Calm - N/A   Unknown